Location: Audrecelles
(50.8240°N, 1.5923°E)
Time: 02:44:44
(UTC+00:00)

Cosmos 44 - Pass Details

Date: 20 October 2025
Orbit: 576 x 774 km, 65.1° (Epoch: 13 November)

Event Time Altitude Azimuth Distance (km) Brightness Sun altitude
Exits shadow 02:17:22 19° 35° (NE) 1,679 5.8 -38.1°
Drops below altitude 10° 02:20:12 10° 67° (ENE) 2,243 6.6 -37.8°
Sets 02:23:15 0° 84° (E) 3,195 7.4 -37.4°
